Harlan, KY

8:37 AM EST on November 21, 2019 (GMT -0500)
Harlan

Weather History for KI35 - September, 2019

Change the Weather History Date:

Saturday, September 14, 2019

  Actual Average (KLOZ) Record (KLOZ)
Temperature  
Mean Temperature 76 °F -  
Max Temperature 88 °F 80 °F 93 °F (1980)
Min Temperature 65 °F 57 °F 36 °F (1964)
Cooling Degree Days 11    
Growing Degree Days 26 (Base 50)    
Moisture  
Dew Point 65 °F    
Average Humidity 71    
Maximum Humidity 95    
Minimum Humidity 41    
Precipitation  
Precipitation 0.00 in - - ()
Sea Level Pressure  
Sea Level Pressure 30.25 in    
Wind  
Wind Speed 2 mph ()    
Max Wind Speed 9 mph    
Max Gust Speed -    
Visibility 9.9 miles    
Events      
Averages and records for this station are not official NWS values.
T = Trace of Precipitation, MM = Missing Value Source: Averaged Metar Reports

Daily Weather History Graph

Daily Weather History Graph

Search for Another Location

Airport or City:

Astronomy

Sep. 14, 2019 Rise Set
Actual Time 7:14 AM EDT 7:42 PM EDT
Civil Twilight 6:48 AM EDT 8:08 PM EDT
Nautical Twilight 6:18 AM EDT 8:39 PM EDT
Astronomical Twilight 5:46 AM EDT 9:10 PM EDT
Moon 8:23 PM EDT (9/14) 7:28 AM EDT (9/14)
Length of Visible Light 13h 20m
Length of Day
12h 28m
Full, 100% of the Moon is Illuminated
Sep 14
Full
Sep 21
Last Quarter
Sep 28
New
Oct 5
First Quarter
Oct 13
Full

Hourly Weather History & Observations

Time (EDT) Temp. Heat Index Dew Point Humidity Pressure Visibility Wind Dir Wind Speed Gust Speed Precip Events Conditions
12:15 AM 76.8 °F - 68.0 °F 74% 30.23 in 10.0 mi ENE 3.5 mph - N/A   Clear
12:35 AM 75.9 °F - 68.0 °F 76% 30.24 in 10.0 mi Calm Calm - N/A   Clear
1:15 AM 72.9 °F - 68.2 °F 85% 30.25 in 10.0 mi Calm Calm - N/A   Clear
1:35 AM 73.4 °F - 68.0 °F 83% 30.25 in 10.0 mi Calm Calm - N/A   Scattered Clouds
1:55 AM 73.6 °F - 68.0 °F 83% 30.25 in 10.0 mi Calm Calm - N/A   Mostly Cloudy
2:15 AM 73.9 °F - 68.0 °F 82% 30.24 in 10.0 mi Calm Calm - N/A   Mostly Cloudy
2:35 AM 74.7 °F - 68.0 °F 80% 30.24 in 10.0 mi East 3.5 mph - N/A   Scattered Clouds
2:55 AM 73.9 °F - 68.0 °F 82% 30.24 in 10.0 mi East 3.5 mph - N/A   Mostly Cloudy
3:15 AM 75.0 °F - 67.5 °F 77% 30.23 in 10.0 mi Calm Calm - N/A   Scattered Clouds
3:35 AM 74.5 °F - 67.3 °F 78% 30.23 in 10.0 mi East 3.5 mph - N/A   Clear
3:55 AM 74.3 °F - 66.9 °F 78% 30.23 in 10.0 mi Calm Calm - N/A   Clear
4:15 AM 74.1 °F - 66.6 °F 77% 30.23 in 10.0 mi Calm Calm - N/A   Scattered Clouds
4:35 AM 73.0 °F - 66.9 °F 81% 30.24 in 10.0 mi East 3.5 mph - N/A   Mostly Cloudy
4:55 AM 73.8 °F - 66.9 °F 79% 30.24 in 10.0 mi Calm Calm - N/A   Overcast
5:15 AM 73.9 °F - 66.7 °F 78% 30.24 in 10.0 mi Calm Calm - N/A   Overcast
5:35 AM 72.9 °F - 67.3 °F 83% 30.25 in 10.0 mi Calm Calm - N/A   Overcast
5:55 AM 72.1 °F - 67.6 °F 86% 30.25 in 10.0 mi Calm Calm - N/A   Mostly Cloudy
6:15 AM 70.9 °F - 68.0 °F 91% 30.25 in 10.0 mi Calm Calm - N/A   Mostly Cloudy
6:35 AM 70.3 °F - 68.0 °F 92% 30.26 in 10.0 mi Calm Calm - N/A   Scattered Clouds
6:55 AM 70.5 °F - 67.5 °F 90% 30.27 in 10.0 mi Calm Calm - N/A   Clear
7:15 AM 69.4 °F - 67.6 °F 94% 30.28 in 10.0 mi Calm Calm - N/A   Scattered Clouds
7:35 AM 69.1 °F - 67.6 °F 95% 30.28 in 7.0 mi Calm Calm - N/A   Mostly Cloudy
7:55 AM 69.8 °F - 68.0 °F 94% 30.28 in 10.0 mi Calm Calm - N/A   Mostly Cloudy
8:15 AM 70.0 °F - 68.2 °F 94% 30.28 in 7.0 mi Calm Calm - N/A   Mostly Cloudy
8:35 AM 70.5 °F - 68.2 °F 92% 30.28 in 10.0 mi Calm Calm - N/A   Scattered Clouds
8:55 AM 70.9 °F - 68.2 °F 91% 30.29 in 10.0 mi Calm Calm - N/A   Clear
9:15 AM 71.2 °F - 68.4 °F 91% 30.29 in 10.0 mi Calm Calm - N/A   Clear
9:35 AM 72.5 °F - 69.4 °F 90% 30.30 in 10.0 mi Calm Calm - N/A   Clear
9:55 AM 75.4 °F - 69.6 °F 82% 30.31 in 10.0 mi Calm Calm - N/A   Scattered Clouds
10:15 AM 76.1 °F - 67.8 °F 75% 30.31 in 10.0 mi Calm Calm - N/A   Scattered Clouds
10:35 AM 78.3 °F - 67.8 °F 70% 30.31 in 10.0 mi West 5.8 mph - N/A   Clear
10:55 AM 79.3 °F - 68.2 °F 69% 30.31 in 10.0 mi West 5.8 mph - N/A   Clear
11:15 AM 79.7 °F - 68.0 °F 67% 30.30 in 10.0 mi SW 4.6 mph - N/A   Clear
11:35 AM 81.9 °F 85.0 °F 68.7 °F 64% 30.29 in 10.0 mi SW 6.9 mph - N/A   Clear
11:55 AM 81.0 °F 83.8 °F 68.4 °F 65% 30.30 in 10.0 mi SW 8.1 mph - N/A   Scattered Clouds
12:15 PM 81.0 °F 83.9 °F 68.5 °F 66% 30.29 in 10.0 mi WSW 3.5 mph - N/A   Scattered Clouds
12:35 PM 81.3 °F 84.3 °F 68.7 °F 65% 30.29 in 10.0 mi Calm Calm - N/A   Scattered Clouds
12:55 PM 82.0 °F 85.3 °F 68.7 °F 64% 30.28 in 10.0 mi SSW 5.8 mph - N/A   Clear
1:15 PM 83.8 °F 87.3 °F 68.5 °F 60% 30.27 in 10.0 mi SW 5.8 mph - N/A   Clear
1:35 PM 86.4 °F 90.4 °F 69.1 °F 56% 30.27 in 10.0 mi WSW 4.6 mph - N/A   Mostly Cloudy
1:55 PM 84.6 °F 87.9 °F 68.4 °F 58% 30.26 in 10.0 mi SSW 8.1 mph - N/A   Mostly Cloudy
2:15 PM 86.2 °F 90.4 °F 69.1 °F 57% 30.25 in 10.0 mi West 6.9 mph - N/A   Mostly Cloudy
2:35 PM 85.8 °F 89.1 °F 68.0 °F 55% 30.25 in 10.0 mi SW 3.5 mph - N/A   Mostly Cloudy
2:55 PM 86.4 °F 89.0 °F 67.1 °F 52% 30.24 in 10.0 mi West 6.9 mph - N/A   Scattered Clouds
3:15 PM 87.4 °F 88.8 °F 64.0 °F 46% 30.23 in 10.0 mi WSW 9.2 mph - N/A   Scattered Clouds
3:55 PM 87.8 °F 88.5 °F 62.4 °F 43% 30.22 in 10.0 mi WNW 9.2 mph - N/A   Scattered Clouds
4:15 PM 87.6 °F 88.2 °F 62.4 °F 43% 30.21 in 10.0 mi NNW 5.8 mph - N/A   Mostly Cloudy
4:35 PM 86.7 °F 87.0 °F 62.1 °F 43% 30.21 in 10.0 mi West 8.1 mph - N/A   Mostly Cloudy
4:55 PM 86.4 °F 86.5 °F 61.3 °F 43% 30.21 in 10.0 mi NW 6.9 mph - N/A   Scattered Clouds
5:35 PM 86.0 °F 85.9 °F 60.6 °F 42% 30.21 in 10.0 mi North 3.5 mph - N/A   Scattered Clouds
5:55 PM 86.4 °F 86.3 °F 60.4 °F 42% 30.21 in 10.0 mi North 3.5 mph - N/A   Scattered Clouds
6:15 PM 85.5 °F 85.0 °F 59.5 °F 41% 30.21 in 10.0 mi North 3.5 mph - N/A   Clear
6:35 PM 84.2 °F 83.8 °F 59.0 °F 42% 30.21 in 10.0 mi Calm Calm - N/A   Clear
6:55 PM 82.9 °F 83.0 °F 59.4 °F 45% 30.22 in 10.0 mi North 3.5 mph - N/A   Clear
7:15 PM 81.3 °F 81.3 °F 57.2 °F 44% 30.22 in 10.0 mi Calm Calm - N/A   Clear
7:35 PM 79.5 °F - 56.5 °F 45% 30.23 in 10.0 mi Calm Calm - N/A   Clear
7:55 PM 77.2 °F - 56.8 °F 49% 30.23 in 10.0 mi NNW 3.5 mph - N/A   Clear
8:15 PM 73.8 °F - 61.5 °F 65% 30.24 in 10.0 mi Calm Calm - N/A   Clear
8:35 PM 74.7 °F - 60.4 °F 61% 30.24 in 10.0 mi NW 3.5 mph - N/A   Clear
8:55 PM 72.3 °F - 60.6 °F 67% 30.25 in 10.0 mi Calm Calm - N/A   Clear
9:15 PM 70.3 °F - 61.7 °F 74% 30.25 in 10.0 mi Calm Calm - N/A   Clear
9:35 PM 69.6 °F - 60.3 °F 72% 30.26 in 10.0 mi Calm Calm - N/A   Clear
9:55 PM 69.3 °F - 61.5 °F 76% 30.26 in 10.0 mi Calm Calm - N/A   Clear
10:15 PM 67.5 °F - 62.2 °F 83% 30.26 in 10.0 mi Calm Calm - N/A   Clear
10:35 PM 66.4 °F - 62.6 °F 88% 30.26 in 10.0 mi Calm Calm - N/A   Clear
10:55 PM 66.4 °F - 62.6 °F 88% 30.26 in 10.0 mi Calm Calm - N/A   Clear
11:15 PM 65.3 °F - 62.6 °F 91% 30.25 in 10.0 mi Calm Calm - N/A   Clear
11:35 PM 65.5 °F - 62.1 °F 89% 30.25 in 10.0 mi Calm Calm - N/A   Clear